Total_Precipitation_Accumulation
0.54 0.52 0.55 0.60 0.62 0.64 0.65 0.64 0.62 0.70 0.74 0.79 0.93 1.16 1.45 1.57 1.66 1.57 1.37 1.31 1.44 1.72 1.98 1.94 2.00 2.06 1.99 1.95 1.95 2.19 2.13 1.85 1.66 1.77 1.61 1.44 1.31 1.48 1.56 1.51 1.60 1.69 1.81
0.44 0.40 0.44 0.48 0.51 0.52 0.58 0.60 0.58 0.65 0.71 0.76 0.94 1.12 1.28 1.29 1.45 1.57 1.53 1.45 1.43 1.59 1.77 2.07 2.20 2.16 2.28 2.39 2.37 2.74 2.88 2.38 1.93 2.05 2.31 2.04 1.83 1.63 1.50 1.56 1.63 1.77 2.00
0.43 0.41 0.40 0.42 0.42 0.43 0.42 0.46 0.49 0.56 0.67 0.81 1.03 1.27 1.50 1.57 1.59 1.50 1.58 1.59 1.49 1.55 1.69 1.85 2.00 2.04 2.19 2.37 2.49 2.82 3.36 3.11 2.43 2.24 2.69 2.47 2.24 2.11 1.79 1.63 1.63 1.70 1.98
0.43 0.48 0.44 0.44 0.41 0.39 0.38 0.41 0.50 0.63 0.82 1.02 1.24 1.49 1.70 1.76 1.62 1.61 1.64 1.53 1.44 1.43 1.56 1.69 1.81 1.94 2.00 2.17 2.27 2.41 3.00 3.40 3.05 2.74 2.44 2.12 2.08 2.28 2.28 1.91 1.71 1.70 1.84
0.42 0.45 0.43 0.45 0.46 0.46 0.48 0.53 0.71 0.93 1.18 1.38 1.64 1.93 1.90 1.79 1.69 1.64 1.63 1.57 1.54 1.51 1.52 1.69 1.75 1.77 1.86 2.00 2.33 2.60 2.91 3.15 3.17 3.15 2.92 2.62 2.34 2.01 2.30 2.36 2.01 1.87 1.83
0.42 0.52 0.58 0.66 0.71 0.74 0.90 1.09 1.34 1.49 1.58 1.70 1.85 1.96 1.90 1.89 1.84 1.66 1.57 1.56 1.61 1.66 1.67 1.72 1.75 1.72 1.77 1.90 2.16 2.47 2.70 3.03 3.26 3.22 3.01 2.87 2.75 2.50 2.44 2.31 2.15 2.16 2.01
0.47 0.63 0.81 0.94 1.07 1.21 1.38 1.52 1.68 1.81 1.76 1.72 1.79 1.82 1.79 1.76 1.75 1.68 1.61 1.55 1.54 1.59 1.62 1.69 1.82 1.89 1.93 2.05 2.24 2.42 2.37 2.56 2.99 3.03 2.90 2.82 2.64 2.57 2.64 2.59 2.27 2.13 1.87
0.65 0.77 0.86 0.99 1.16 1.33 1.41 1.44 1.52 1.64 1.63 1.59 1.58 1.57 1.60 1.60 1.55 1.47 1.44 1.48 1.56 1.54 1.48 1.51 1.62 1.74 1.92 1.98 2.05 2.11 2.09 2.19 2.45 2.56 2.76 2.88 2.68 2.58 2.47 2.45 2.51 2.27 1.98
0.92 1.08 1.20 1.32 1.36 1.41 1.50 1.43 1.44 1.50 1.51 1.46 1.42 1.44 1.44 1.48 1.48 1.40 1.40 1.38 1.37 1.29 1.20 1.21 1.28 1.35 1.43 1.52 1.68 1.79 1.89 1.96 2.10 2.23 2.37 2.55 2.68 2.63 2.46 2.45 2.44 2.42 2.21
1.16 1.46 1.74 1.91 1.73 1.46 1.41 1.41 1.35 1.37 1.46 1.47 1.41 1.39 1.47 1.47 1.44 1.44 1.38 1.35 1.35 1.25 1.15 1.10 1.08 1.06 1.02 1.06 1.25 1.45 1.58 1.68 1.85 2.04 2.17 2.22 2.30 2.50 2.50 2.38 2.40 2.35 2.21
1.29 1.46 1.70 1.89 1.80 1.48 1.26 1.31 1.38 1.40 1.42 1.41 1.43 1.42 1.40 1.31 1.29 1.31 1.28 1.25 1.24 1.27 1.23 1.13 1.07 1.15 1.14 1.08 1.14 1.19 1.26 1.34 1.50 1.65 1.78 1.94 2.20 2.50 2.54 2.52 2.43 2.36 2.26
1.20 1.20 1.28 1.36 1.43 1.29 1.10 1.08 1.24 1.35 1.35 1.34 1.37 1.35 1.25 1.17 1.17 1.16 1.07 0.95 0.90 0.90 1.00 1.10 1.03 1.01 1.04 1.06 1.12 1.11 1.14 1.20 1.33 1.45 1.58 1.76 2.04 2.39 2.60 2.70 2.59 2.46 2.36
1.21 1.18 1.11 1.05 1.09 1.07 1.01 0.99 1.13 1.28 1.35 1.34 1.23 1.13 1.06 1.06 1.09 1.02 0.94 0.89 0.78 0.72 0.73 0.82 0.82 0.91 1.01 1.03 1.07 1.09 1.12 1.16 1.25 1.41 1.49 1.54 1.75 1.95 2.14 2.33 2.46 2.44 2.44
0.93 0.90 0.86 0.79 0.77 0.81 0.86 0.92 1.06 1.16 1.29 1.41 1.32 1.19 1.09 1.06 1.04 1.00 0.97 0.90 0.84 0.81 0.81 0.91 0.94 0.89 0.89 0.94 1.02 1.07 1.05 1.05 1.07 1.15 1.26 1.36 1.43 1.62 1.75 1.86 2.08 2.28 2.53
0.55 0.57 0.62 0.61 0.55 0.53 0.54 0.64 0.80 0.97 1.17 1.42 1.41 1.27 1.21 1.17 1.05 0.99 1.00 0.97 0.97 0.90 0.87 0.95 1.04 1.08 1.04 1.02 1.08 1.04 1.03 1.05 1.03 1.07 1.07 1.14 1.21 1.29 1.48 1.52 1.74 2.05 2.35
0.39 0.43 0.45 0.51 0.44 0.37 0.38 0.40 0.51 0.72 0.89 1.09 1.19 1.16 1.07 0.97 0.95 0.96 0.94 0.90 0.88 0.83 0.77 0.77 0.81 0.90 0.98 1.25 1.19 0.97 0.90 0.96 1.01 1.06 1.05 1.08 1.05 1.03 1.12 1.26 1.37 1.65 1.89
0.32 0.35 0.38 0.43 0.44 0.41 0.38 0.39 0.45 0.54 0.67 0.84 0.96 0.95 0.90 0.81 0.81 0.85 0.83 0.78 0.72 0.72 0.67 0.66 0.63 0.66 0.86 1.01 0.82 0.79 0.78 0.89 1.00 1.08 1.13 1.10 1.04 1.08 1.08 1.12 1.14 1.19 1.39
0.32 0.32 0.35 0.37 0.37 0.39 0.40 0.40 0.41 0.43 0.49 0.59 0.67 0.70 0.71 0.69 0.70 0.70 0.71 0.75 0.70 0.64 0.61 0.64 0.69 0.69 0.74 0.85 0.71 0.66 0.71 0.89 1.02 1.02 1.00 1.09 1.12 1.16 1.22 1.14 1.18 1.12 1.11
0.22 0.22 0.22 0.22 0.25 0.27 0.30 0.33 0.38 0.40 0.39 0.42 0.46 0.51 0.53 0.57 0.62 0.64 0.67 0.78 0.77 0.71 0.69 0.77 0.82 0.75 0.71 0.79 0.75 0.76 0.82 0.94 1.03 0.99 1.01 1.11 1.16 1.33 1.39 1.28 1.32 1.27 1.23
0.13 0.14 0.12 0.12 0.15 0.19 0.23 0.27 0.32 0.37 0.38 0.39 0.40 0.45 0.46 0.49 0.55 0.63 0.65 0.63 0.62 0.65 0.70 0.72 0.67 0.66 0.73 0.85 0.80 0.86 0.97 1.07 1.18 1.14 1.15 1.38 1.35 1.35 1.29 1.22 1.37 1.33 1.20
0.11 0.11 0.11 0.11 0.14 0.18 0.22 0.25 0.31 0.33 0.35 0.42 0.43 0.43 0.44 0.46 0.50 0.50 0.47 0.48 0.53 0.53 0.51 0.52 0.57 0.61 0.75 0.81 0.85 1.02 1.05 1.10 1.25 1.27 1.24 1.20 1.37 1.31 1.23 1.21 1.22 1.35 1.26
0.09 0.09 0.11 0.13 0.13 0.15 0.20 0.26 0.34 0.34 0.35 0.36 0.36 0.35 0.35 0.37 0.39 0.41 0.38 0.38 0.44 0.47 0.48 0.52 0.55 0.59 0.64 0.70 0.76 0.90 1.00 1.06 1.21 1.29 1.18 1.09 1.34 1.30 1.21 1.11 1.11 1.26 1.33
0.11 0.11 0.13 0.19 0.21 0.18 0.21 0.26 0.33 0.38 0.37 0.34 0.29 0.30 0.30 0.31 0.31 0.32 0.37 0.40 0.41 0.43 0.43 0.46 0.52 0.61 0.63 0.64 0.74 0.78 0.85 0.97 1.14 1.22 1.24 1.21 1.24 1.16 1.10 1.18 1.20 1.20 1.21
0.10 0.13 0.18 0.22 0.26 0.25 0.27 0.30 0.33 0.34 0.34 0.31 0.28 0.28 0.28 0.28 0.27 0.29 0.33 0.36 0.37 0.38 0.41 0.47 0.51 0.55 0.59 0.61 0.73 0.84 0.87 0.96 1.02 1.03 1.08 1.07 1.04 1.03 1.03 1.08 1.17 1.20 1.25
0.09 0.12 0.19 0.23 0.24 0.27 0.32 0.35 0.33 0.29 0.30 0.29 0.28 0.26 0.29 0.29 0.27 0.25 0.29 0.34 0.37 0.45 0.50 0.52 0.54 0.54 0.53 0.60 0.75 0.88 0.97 1.11 1.24 1.25 1.11 1.04 1.01 0.98 0.96 0.98 1.03 1.09 1.10
0.11 0.14 0.18 0.21 0.24 0.27 0.29 0.30 0.29 0.25 0.25 0.28 0.27 0.26 0.25 0.26 0.28 0.30 0.28 0.32 0.37 0.46 0.53 0.56 0.56 0.56 0.61 0.62 0.61 0.69 0.87 1.07 1.38 1.62 1.53 1.44 1.31 1.19 1.07 1.01 0.96 0.93 0.96